www.pogodaiklimat.ru

Погода и климат >> Архив погоды >> Индия >> Бихар >> Гая


ПОГОДА в Гае

  • Прогноз погоды в Гае
  • Монитор погоды в Гае

АРХИВ ПОГОДЫ в Гае

Время (UTC), дата Ветер
(напр.,м/с)
 
Видим.   Явления Облачность Т
(С)
Тd
(С)
f
(%)
Тe
(С)
Тes
(С)
Комфортность P
(гПа)
Po
(гПа)
Тmin
(С)
Tmax
(С)
R
(мм)
R24
(мм)
S
(см)
21 19.05 ЮВ 1 2000 м мгла ясно +27.2 +16.2 51 +31 +31 душно 1006.0 992.8
00 20.05 штиль 0 2000 м мгла ясно +26.6 +13.8 45 +29 +29 жарко 1006.2 993.0
03 20.05 Ю 2 2000 м мгла ясно +36.0 +14.5 28 +37 +48 душно 1007.7 994.9 +25.2
06 20.05 З 4 4000 м пыль ясно +39.8 +10.7 18 +39 +53 опасность
солнечного
удара
1006.6 993.9
09 20.05 З 6 4000 м пыль 1/1 600 м
[Sc]
+42.0 +7.8 13 +40 +45 очень
жарко
1003.5 991.0
12 20.05 З 5 4000 м мгла ясно +41.4 +7.2 13 +39 +40 очень
жарко
1001.8 989.3 +42.8
15 20.05 С 1 2000 м мгла ясно +33.0 +12.2 28 +33 +33 жарко 1004.9 992.0
18 20.05 З 1 2000 м мгла ясно +29.0 +14.1 40 +31 +31 жарко 1005.4 992.3
21 20.05 З 1 2000 м мгла ясно +27.8 +14.1 43 +30 +30 жарко 1009.6 996.4
00 21.05 Ю 1 2000 м мгла ясно +25.4 +11.8 43 +27 +27 жарко 1004.6 991.3
03 21.05 ЮЗ 2 2000 м мгла ясно +36.0 +9.9 20 +35 +45 очень
жарко
1006.1 993.3 +24.4
06 21.05 З 3 4000 м мгла ясно +41.4 +8.5 14 +39 +59 опасность
солнечного
удара
1005.2 992.6
09 21.05 З 4 4000 м пыль ясно +43.0 +8.0 12 +41 +50 опасность
перегрева
1002.9 990.4
12 21.05 З 3 4000 м мгла ясно +42.4 +8.0 13 +40 +41 очень
жарко
1001.0 988.5 +43.2
15 21.05 штиль 0 2000 м мгла ясно +34.0 +14.6 31 +35 +35 очень
жарко
1003.3 990.4
18 21.05 штиль 0 2000 м мгла ясно +33.8 +19.6 43 +39 +39 очень
душно
1004.1 991.2
21 21.05 штиль 0 2000 м мгла ясно +30.2 +25.1 74 +44 +44 опасность
перегрева
1002.8 989.8
00 22.05 штиль 0 2000 м мгла ясно +28.0 +19.7 61 +34 +34 очень
душно
1002.9 989.8
03 22.05 штиль 0 2000 м мгла ясно +34.0 +21.3 48 +42 +56 опасность
перегрева
1004.3 991.4 +25.8
06 22.05 З 3 4000 м пыль ясно +41.2 +12.2 18 +41 +59 опасность
перегрева
1003.7 991.1
09 22.05 З 4 4000 м пыль 5/1 600 м
[Sc diur, vesp Ac trans]
+43.8 +9.8 13 +42 +48 опасность
перегрева
1000.9 988.5
12 22.05 С 3 4000 м пыль 5/3 600 м
[Sc Ac trans]
+41.8 +14.8 21 +43 +43 опасность
перегрева
999.2 986.7 +44.2
15 22.05 С 2 2000 м мгла ясно +36.2 +15.7 30 +38 +38 очень
душно
1000.7 988.0
18 22.05 СВ 1 2000 м гроза, ливневой дождь 6/4 600 м
[Cb calv Ac trans]
+34.2 +22.3 50 +43 +43 опасность
перегрева
1002.8 989.9 0.6
21 22.05 В 1 2000 м мгла 3/3 600 м
[Sc]
+30.6 +25.2 73 +44 +44 опасность
перегрева
1001.7 988.7 0.6
00 23.05 штиль 0 2000 м мгла 4/3 600 м
[Sc]
+28.6 +24.6 79 +41 +41 опасность
перегрева
1002.7 989.6 0.6
03 23.05 ЮВ 2 2000 м мгла 6/4 600 м
[Sc Ac trans]
+34.2 +22.3 50 +43 +48 опасность
перегрева
1003.7 990.8 +27.8 0.6
06 23.05 В 3 4000 м мгла 6/4 600 м
[Sc Ac trans]
+40.6 +19.9 30 +45 +54 опасность
перегрева
1002.7 990.1
09 23.05 СЗ 3 4000 м мгла 6/5 600 м
[Sc diur, vesp Ac trans]
+41.8 +17.6 25 +45 +50 опасность
перегрева
1000.2 987.7
12 23.05 С 3 4000 м в посл. час гроза 6/4 600 м
[Sc Ac trans]
+39.2 +18.8 31 +43 +44 опасность
перегрева
999.1 986.5 +42.1
15 23.05 В 3 2000 м мгла 4/0
[Ac trans]
+35.6 +19.0 38 +40 +40 очень
душно
1001.1 988.3
18 23.05 В 2 2000 м мгла 4/0
[Ac trans]
+31.6 +17.9 44 +36 +36 очень
душно
1002.4 989.4
21 23.05 СВ 2 2000 м мгла ясно +30.2 +19.9 54 +36 +36 очень
душно
1001.3 988.3
00 24.05 штиль 0 2000 м мгла 3/3 600 м
[Sc]
+28.6 +22.7 70 +38 +38 очень
душно
1002.1 989.0
03 24.05 ЮВ 2 2000 м мгла ясно +35.0 +20.4 43 +42 +52 опасность
перегрева
1003.1 990.3 +27.8
06 24.05 СЗ 3 4000 м пыль ясно +40.0 +19.9 31 +45 +63 опасность
перегрева
1002.2 989.6
09 24.05 С 4 4000 м пыль 3/3 600 м
[Sc]
+41.6 +20.6 30 +47 +54 опасность
перегрева
999.8 987.3
12 24.05 С 3 4000 м мгла 3/3 600 м
[Sc]
+40.0 +21.8 35 +47 +48 опасность
перегрева
998.0 985.4 +42.0
15 24.05 СВ 1 2000 м мгла ясно +36.4 +23.6 48 +47 +47 опасность
перегрева
1000.2 987.5
18 24.05 В 1 2000 м мгла ясно +33.6 +24.9 60 +47 +47 опасность
перегрева
1001.3 988.4
21 24.05 СВ 1 2000 м мгла ясно +32.4 +24.4 63 +45 +45 опасность
перегрева
1000.3 987.4
00 25.05 штиль 0 2000 м мгла 3/0
[Ci fib]
+29.0 +24.7 78 +41 +42 опасность
перегрева
1000.3 987.3
03 25.05 СЗ 1 2000 м мгла ясно +32.2 +25.1 66 +46 +58 опасность
перегрева
1002.5 989.6 +28.4
06 25.05 С 5 4000 м мгла 4/4 600 м
[Sc]
+38.8 +22.8 40 +48 +56 опасность
перегрева
1001.4 988.8
09 25.05 СЗ 6 2000 м пыль 6/6 600 м
[Sc diur, vesp]
+41.4 +16.0 23 +43 +45 опасность
перегрева
998.9 986.4
12 25.05 СЗ 6 2000 м мгла 3/3 600 м
[Sc]
+40.4 +11.8 18 +39 +40 очень
жарко
997.3 984.8 +42.2
15 25.05 З 2 2000 м мгла 6/3 600 м
[Sc Ac trans]
+36.2 +13.8 26 +37 +37 очень
жарко
1000.4 987.7
18 25.05 штиль 0 2000 м мгла 9/4 600 м
[Sc Ac trans]
+32.4 +17.0 40 +36 +36 очень
душно
1001.1 988.2
21 25.05 ЮВ 1 2000 м мгла 8/4 600 м
[Sc Ac trans]
+29.4 +19.6 56 +35 +35 очень
душно
1000.6 987.6
00 26.05 штиль 0 2000 м мгла ясно +27.0 +22.9 78 +36 +36 очень
душно
1001.7 988.6
03 26.05 З 2 2000 м мгла 3/0
[Ac trans]
+35.6 +14.8 29 +37 +47 душно 1003.1 990.3 +25.5
06 26.05 З 5 4000 м пыль 4/0
[Ci fib]
+39.8 +12.4 20 +39 +50 очень
жарко
1002.3 989.7
09 26.05 З 6 4000 м пыль 1/1 600 м
[Sc]
+41.8 +13.3 19 +42 +47 опасность
перегрева
1000.2 987.7
12 26.05 СЗ 6 4000 м пыль ясно +41.0 +23.1 36 +50 +50 опасность
перегрева
998.9 986.4 +42.5
15 26.05 штиль 0 2000 м мгла ясно +33.2 +12.9 29 +34 +34 очень
жарко
1001.5 988.6

 

Местоположение метеостанции Гая (Бихар, Индия): широта 24.75 долгота 84.95 высота над уровнем моря 116 м.

В архиве по умолчанию представлена погода в Гае за последнюю неделю. Архивные данные за месяц целиком и за предыдущие месяцы, начиная с января 2011 года, Вы можете получить, выбрав интересующий диапазон дат из раскрывающегося списка и нажав кнопку "Ввод!".


*Определитесь, кто Вы:
робот инопланетянин человек

Внимание! Время в таблицах - всемирное. Для получения местного времени необходимо прибавить поправку, которая равна 5.5 ч.

Смотрите также архив погоды в соседних городах и на ближайших метеорологических станциях:

Погода в Дехри (Бихар, Индия) (80 км)
Погода в Патне (Бихар, Индия) (96 км)
Погода в Чхапре (Бихар, Индия) (117 км)
Погода в Далтонгандже (Джаркханд, Индия) (118 км)
Погода в Гхазипуре (Уттар-Прадеш, Индия) (158 км)
Погода в Ранчи (Джаркханд, Индия) (163 км)
Погода в Варанаси (Уттар-Прадеш, Индия) (204 км)
Погода в Бхагалпуре (Бихар, Индия) (209 км)
Погода в Пурулии (Западная Бенгалия, Индия) (217 км)
Погода в Варанаси аэропорту (Уттар-Прадеш, Индия) (224 км)

Пояснения к столбцам:

Ветер - указаны скорость ветра в м/с - средняя за 10 мин, порывы в срок и между сроками (в фигурных скобках) и направление, откуда дует ветер: С - северный, СВ - северо-восточный, В - восточный, ЮВ - юго-восточный, Ю - южный, ЮЗ - юго-западный, З - западный, СЗ - северо-западный.
Видимость - горизонтальная дальность видимости в метрах или километрах. При видимости от 1 до 10 км при отсутствии осадков обычно наблюдается дымка, при ухудшении видимости до 1 км и менее - туман. В сухую погоду видимость может ухудшаться дымом, пылью или мглою.
Явления - указаны атмосферные явления, наблюдавшиеся в срок или в последний час перед сроком; фигурными скобками обозначены явления, наблюдавшиеся между сроками (за 1-3 часа до срока); квадратными скобками обозначены град или гололедные отложения с указанием их диаметра в мм.
Облачность - указаны через наклонную черту общая и нижняя облачность в баллах и высота нижней границы облаков в метрах; квадратными скобками обозначены формы облаков: Ci - перистые, Cs - перисто-слоистые, Cc - перисто-кучевые, Ac - высококучевые, As - высокослоистые, Sc - слоисто-кучевые, Ns - слоисто-дождевые, Cu - кучевые, Cb - кучево-дождевые. Подробнее классификацию облаков см. в Атласе облаков (PDF).
T - Температура воздуха - температура, измеренная на высоте 2 м над землей.
Td - Температура точки росы - температура, при понижении до которой содержащийся в воздухе водяной пар достигнет насыщения.
f - Относительная влажность воздуха - влажноcть воздуха, измеренная на высоте 2 м над землей.
Te - Эффективная температура - температура, которую ощущает одетый по сезону человек в тени. Характеристика душности погоды. При расчете учитывается влияние влажности воздуха и скорости ветра на теплоощущения человека.
Tes - Эффективная температура на солнце - температура, которую ощущает человек, с поправкой на солнечный нагрев. Характеристика знойности погоды. Зависит от высоты солнца над горизонтом, облачности и скорости ветра. Ночью, в пасмурную погоду, а также при ветре 12 м/с и более поправка равна нулю.
P - Атмосферное давление - приведенное к уровню моря атмосферное давление.
Po - Атмосферное давление - измеренное на уровне метеостанции атмосферное давление.
Tmin - Минимальная температура - минимум температуры воздуха на высоте 2 м над землей.
Tmax - Максимальная температура - максимум температуры воздуха на высоте 2 м над землей.
R - Количество осадков - Количество выпавших осадков за период времени, мм. При наведении курсора мыши на число - период времени, за который выпало указанное количество осадков.
R24 - Количество осадков - Количество выпавших осадков за 24 часа, мм.
S - Снежный покров - Высота снежного покрова, см. При наведении курсора мыши на число - состояние снежного покрова и степень покрытия местности в баллах.